Regional Weather Roundup
Issued by NWS

Home | Current Version | Previous Version | Text Only | Print | Product List | Glossary Off
Versions: 1 2 3 4 5 6 7 8 9 10 11 12 13 14 15 16 17 18 19 20 21 22 23 24 25 26 27 28 29 30 31 32 33 34 35 36 37 38 39 40 41 42 43 44 45 46 47 48 49 50

000
ASUS43 KLOT 020506
RWRIL

ILLINOIS REGIONAL WEATHER ROUNDUP
NATIONAL WEATHER SERVICE CHICAGO/ROMEOVILLE IL
1100 PM CST SUN MAR 01 2015

NOTE: "FAIR" INDICATES FEW OR NO CLOUDS BELOW 12,000 FEET WITH NO
SIGNIFICANT WEATHER AND/OR OBSTRUCTIONS TO VISIBILITY.

* THESE STATIONS ARE NOT UNDER NWS QUALITY CONTROL. THEY ALSO MAY NOT
  REPORT WEATHER SUCH AS PRECIPITATION OR FOG.

ILZ001-002-007-009-015-016-024-020600-
NORTHWEST ILLINOIS

CITY           SKY/WX    TMP DP  RH WIND       PRES   REMARKS
MOLINE         MOCLDY    14   5  67 CALM      30.43R
STERLING*      PTCLDY    12   7  79 W6        30.40R WCI   3
SAVANNA*       CLEAR     17  10  74 W3        30.40R
$$

ILZ003-004-008-010-011-017-018-020600-
NORTH CENTRAL ILLINOIS

CITY           SKY/WX    TMP DP  RH WIND       PRES   REMARKS
ROCKFORD       CLEAR     17   7  64 W8        30.37S WCI   7
FREEPORT*      CLEAR     16   8  72 W7        30.38R WCI   6
ROCHELLE*      CLEAR     12   6  78 W9        30.38R WCI  -1
DE KALB*       CLEAR     14   8  74 W10       30.36R WCI   2
PERU*          PTCLDY    18  11  76 W12       30.41R WCI   5
$$

ILZ005-006-012>014-019>023-020600-
NORTHEAST ILLINOIS

CITY           SKY/WX    TMP DP  RH WIND       PRES   REMARKS
CHICAGO-OHARE  CLEAR     19  10  68 W13       30.34R WCI   6
CHICAGO-MIDWAY CLEAR     21  13  71 W12       30.35R WCI   9
AURORA         CLEAR     16   8  71 W13       30.37R WCI   2
LANSING*       PTCLDY    19  14  79 W13       30.36S WCI   7
JOLIET*        PTCLDY    15  10  82 W5        30.39R WCI   7
WAUKEGAN       CLEAR     19   8  62 W7        30.31R WCI  10
DUPAGE AIRPORT CLEAR     18   9  68 W13       30.34R WCI   5
KANKAKEE*      MOCLDY    16  12  85 W14       30.40R WCI   1
WHEELING       CLEAR     20   8  60 NW13      30.35R WCI   7
MORRIS*        PTCLDY    13  10  87 W10       30.38R WCI   0
ROMEOVILLE*    PTCLDY    16  11  80 W12       30.37R WCI   2
NORTHERLY ISL    N/A     22  14  71 W14         N/A  WCI   9
$$

LMZ740>746-020600-
SOUTHERN LAKE MICHIGAN

STATION/POSITION SKY/WX   TEMP    WIND        PRES    VSBY  WAVE
                          AIR SEA DIR/SP/G                  HT/PER
                          (F)     (DEG/KT/KT) (MB)    (MI)  (FT/S)
WAUKEGAN HARBOR            21     280/ 13/ 20   N/A
HARRISON CRIB              22     280/ 19/ 23   N/A
BURNHAM HARBOR             21     270/ 13/ 16   N/A
CALUMET HARBOR             21     250/  8/ 12 1026.1S
MICHIGAN CITY              19     220/ 12/ 16   N/A
$$

ILZ025>027-034>036-040-047-049-050-058-095>099-020600-
WEST-CENTRAL ILLINOIS

CITY           SKY/WX    TMP DP  RH WIND       PRES   REMARKS
QUINCY         CLOUDY    23  17  78 W5        30.47R WCI  17
GALESBURG*     MOCLDY    14  11  87 CALM      30.44R
MACOMB*        MOCLDY    20  16  86 W7        30.48S WCI  11
JACKSONVILLE*  MOCLDY    21  16  82 W5        30.47R WCI  14
PITTSFIELD*    MOCLDY    19  16  89 W3        30.48R
$$

ILZ028>032-037-038-041>044-048-051>054-059>061-020600-
CENTRAL ILLINOIS

CITY           SKY/WX    TMP DP  RH WIND       PRES   REMARKS
PONTIAC        MOCLDY    19  15  84 W12       30.43R WCI   6
BLOOMINGTON    MOCLDY    20  16  84 W12       30.43R WCI   8
DECATUR        MOCLDY    22  16  78 W6        30.44S WCI  14
PEORIA         MOCLDY    21  14  74 W6        30.45R WCI  13
LACON*         MOCLDY    16  12  83 CALM      30.44R
LINCOLN*       MOCLDY    22  17  81 W5        30.48R WCI  16
SPRINGFIELD    MOCLDY    17  13  84 W7        30.47R WCI   8
TAYLORVILLE    MOCLDY    19  18  93 W5        30.47R WCI  13
$$

ILZ033-039-045-046-055>057-062-063-020600-
EAST-CENTRAL ILLINOIS

CITY           SKY/WX    TMP DP  RH WIND       PRES   REMARKS
CHAMPAIGN      MOCLDY    14  11  87 W7        30.42S WCI   4
DANVILLE*      PTCLDY    18  14  86 W7        30.38S WCI   8
RANTOUL*       MOCLDY    17  14  87 W8        30.41S WCI   7
MATTOON        MOCLDY    20  16  84 NW10      30.43R WCI   9
PARIS*         PTCLDY    19  17  90 W8        30.44S WCI   9
$$

ILZ079-100>102-020600-
SOUTHWEST ILLINOIS

CITY           SKY/WX    TMP DP  RH WIND       PRES   REMARKS
ALTON          PTCLDY    19  17  94 W3        30.49R
BELLEVILLE     PTCLDY    18  18 100 NW3       30.48R FOG
CAHOKIA*       PTCLDY    21  18  88 W3        30.50R
SPARTA*        PTCLDY    26  22  84 NW6       30.49R WCI  20
$$

ILZ064>066-069>071-074>076-080>082-084>086-088>090-092>094-020600-
SOUTH-CENTRAL ILLINOIS

CITY           SKY/WX    TMP DP  RH WIND       PRES   REMARKS
CARBONDALE     MOCLDY    30  25  81 NW6       30.47R WCI  24
CAIRO*         CLOUDY    35  28  77 N13       30.45S WCI  26
EFFINGHAM*     MOCLDY    22  17  83 W6        30.48R WCI  14
MARION         PTCLDY    32  27  80 N5        30.48R WCI  27
MT. VERNON     PTCLDY    21  16  79 CALM      30.47S
CENTRALIA*     FOG       16  14  92 W3        30.47S VSB 1/4
SALEM*         PTCLDY    21  19  92 CALM      30.47S FOG
METROPOLIS*    CLOUDY    33  29  86 N12       30.45R WCI  24
$$

ILZ067-068-072-073-078-083-087-091-020600-
SOUTHEAST ILLINOIS

CITY           SKY/WX    TMP DP  RH WIND       PRES   REMARKS
LAWRENCEVILLE  PTCLDY    26  21  81 NW7       30.46R WCI  18
FLORA*         PTCLDY    23  20  91 W6        30.48R WCI  15
FAIRFIELD*     PTCLDY    26  21  83 CALM      30.46S
HARRISBURG*    CLEAR     30  26  84 N8        30.48R WCI  22
ROBINSON*      PTCLDY    24  21  88 NW5       30.47R WCI  18
CARMI*         CLEAR     30  26  84 NW12      30.46S WCI  21
$$

ABBREVIATIONS USED IN REMARKS
   TC - TEMPERATURE IN CELSIUS
  WCI - WIND CHILL INDEX
   HX - HEAT INDEX
  VSB - VISIBILITY
$$




USA.gov is the U.S. government's official web portal to all federal, state and local government web resources and services.